Lid_Strength_Index
3 3 2 3 3 3 3 4 4 4 3 4 4 4 4 4 4 5 8 5 4 -1 -1 1 1 2 4 4 3 3 7 8 8 7 7 4 5 4 3 4 3 2 3 2 1
4 3 3 3 3 3 3 3 3 4 4 4 3 4 4 4 5 7 3 2 0 -0 5 3 4 3 4 4 3 5 7 7 5 5 5 4 4 4 4 4 4 3 2 1 1
3 3 4 4 4 4 4 4 4 4 4 4 4 3 3 3 8 8 1 -0 1 1 6 4 4 4 5 4 4 5 8 5 5 4 4 5 5 4 5 6 4 4 3 2 2
4 4 3 3 3 4 4 4 4 4 4 4 4 4 3 4 10 3 3 1 -0 2 5 6 5 7 7 7 4 7 5 5 4 4 4 5 4 5 4 4 3 2 2 2 2
4 4 4 4 4 4 4 4 4 4 4 3 4 4 5 7 8 3 0 2 5 3 6 6 6 6 7 6 6 6 5 4 4 4 4 4 5 5 4 3 2 2 2 2 2
4 4 4 4 4 4 4 4 3 4 4 4 4 4 6 11 5 4 4 4 4 4 5 5 6 5 5 5 6 4 5 5 4 4 4 5 5 5 4 4 3 3 3 2 2
4 4 4 4 4 4 4 4 4 3 4 3 3 4 7 9 4 4 5 5 5 5 5 4 5 5 4 5 4 5 7 6 6 5 5 5 7 6 4 4 3 3 3 2 2
4 4 4 4 4 4 4 4 4 4 3 3 3 5 9 5 4 5 4 4 5 5 6 5 4 5 5 4 6 7 6 9 6 5 5 5 9 6 4 4 4 4 4 3 2
4 4 4 4 4 4 4 4 4 4 4 4 5 6 10 5 7 5 4 6 4 4 5 6 6 7 7 9 9 8 10 9 8 5 6 7 8 6 4 4 4 4 4 3 3
4 4 4 4 4 4 4 4 4 4 4 4 5 9 8 10 7 5 4 4 6 6 6 8 8 9 9 10 12 10 9 9 8 6 6 7 7 6 4 5 5 4 4 4 3
4 4 4 4 4 4 5 5 7 8 7 9 9 9 9 7 6 7 6 5 5 6 9 8 10 11 10 9 9 9 9 9 7 6 7 7 7 6 5 5 5 4 4 4 3
4 4 4 4 4 4 5 8 8 7 11 8 8 8 8 7 10 8 6 8 8 10 8 9 11 9 8 8 9 10 10 10 7 6 7 7 8 6 5 5 5 4 4 4 3
4 4 4 4 3 4 5 5 3 3 11 8 7 8 7 6 9 8 7 8 9 10 9 10 10 7 8 9 10 10 10 10 9 8 7 8 9 8 6 5 5 4 3 3 3
4 3 3 2 3 2 3 1 0 -0 10 9 7 5 5 5 8 5 5 8 9 10 9 9 7 8 9 10 9 11 8 9 9 10 12 8 12 9 7 6 5 5 4 4 3
3 2 1 1 1 3 2 -0 -0 1 15 8 6 2 3 5 5 5 3 6 10 9 7 10 9 9 9 9 8 10 8 9 9 11 11 11 12 10 7 8 7 5 4 3 3
1 0 -0 -0 0 0 -1 -1 1 12 15 9 6 6 6 6 6 5 5 3 5 8 7 8 6 8 8 8 8 7 8 9 9 10 14 11 11 11 9 7 6 5 4 4 3
-1 -0 -0 -1 2 -1 -1 2 11 14 7 10 9 7 7 7 7 6 7 8 9 10 12 8 8 8 7 9 8 8 9 13 14 14 14 10 11 10 7 6 5 5 4 4 4
-1 -0 1 -1 -1 -1 1 7 15 10 10 7 7 7 9 7 8 8 8 10 7 8 9 11 12 9 8 9 10 10 9 12 16 15 13 9 12 10 6 5 4 4 4 4 4
-0 -1 -0 -0 -2 -1 5 12 11 9 8 8 8 9 9 8 8 8 9 12 10 7 10 11 11 7 7 7 7 9 10 8 10 10 12 10 9 7 6 5 5 4 4 4 4
1 1 2 -1 -1 2 8 11 9 6 6 7 11 9 11 9 9 9 10 10 11 8 7 9 13 7 8 7 7 7 7 11 10 14 15 12 11 10 8 6 5 5 5 5 4
1 4 1 -2 -1 5 11 9 7 5 6 8 9 10 10 10 9 10 11 10 9 8 7 8 10 9 8 9 10 9 9 8 8 10 13 14 11 7 7 6 5 5 5 5 4
2 6 -0 -1 7 7 9 7 6 6 5 7 7 8 9 9 10 10 11 10 8 8 12 7 10 13 9 8 6 6 8 8 11 12 10 11 11 5 5 5 5 5 5 4 4
4 4 -1 1 10 10 7 7 6 7 7 7 8 7 7 9 11 10 9 7 8 8 11 10 11 13 11 8 7 8 8 7 7 8 11 13 12 5 5 5 5 5 5 4 4
4 7 4 3 4 8 9 8 8 5 6 6 7 7 8 9 7 9 10 9 7 8 7 8 10 12 13 10 9 10 9 8 8 10 10 11 9 7 6 6 5 5 5 4 4
3 6 5 9 8 7 8 8 9 10 6 6 8 9 9 11 9 11 10 10 9 7 8 9 12 10 10 10 10 9 9 8 9 8 10 10 9 7 6 5 5 4 4 5 4
6 7 5 7 6 7 8 9 9 9 9 9 9 8 7 9 9 10 9 10 10 8 9 8 11 10 11 10 10 10 9 8 8 8 8 9 8 6 5 5 5 4 5 5 4
3 1 5 7 7 9 9 9 9 9 8 7 7 8 9 7 6 5 5 6 7 9 10 11 12 11 13 9 10 12 9 8 8 7 8 10 7 6 7 6 5 4 4 4 4